User: anonymous   Login
Location: Unspecified
(0.0000°N, 0.0000°E)
Time: 15:27:49
(UTC+01:00)
Language:

Cosmos 2219 Rocket - Orbit

View from above orbital plane
View from above orbital plane
View from above satellite
View from above satellite

Ground track
Ground track

The orbit data is extracted from the following two-line orbital elements,

1 22220U 92076B   14351.87976885  .00000342  00000-0  19638-3 0  4819
2 22220 070.9990 179.4963 0014319 230.1975 222.1543 14.16338854141590
Epoch (UTC): 17 December 2014 21:06:52
Eccentricity: 0.0014319
inclination: 70.9990°
perigee height: 827 km
apogee height: 848 km
right ascension of ascending node: 179.4963°
argument of perigee: 230.1975°
revolutions per day: 14.16338854
mean anomaly at epoch: 222.1543°
orbit number at epoch: 14159

The dashed part of the orbit path shows where the satellite is in the earth's shadow,  

DLR